Location: Unspecified
(0.0000°N, 0.0000°E)
Time: 17:19:51
(UTC+00:00)

STARLINK 1056 - Pass Details

Date: 19 January 2020
Orbit: 549 x 551 km, 53.0° (Epoch: 23 January)

Event Time Altitude Azimuth Distance (km) Brightness Sun altitude
Rises 18:40:46 0° 297° (WNW) 2,713 7.8 -7.1°
Reaches altitude 10° 18:43:36 10° 277° (W) 1,825 7.4 -7.7°
Maximum altitude 18:46:22 17° 235° (SW) 1,423 7.0 -8.4°
Drops below altitude 10° 18:49:10 10° 193° (SSW) 1,835 6.8 -9.0°
Sets 18:52:02 0° 173° (S) 2,735 7.4 -9.7°
